{"data":{"norad_id":64268,"epoch":"2026-09-20T08:54:30.612960Z","epoch_age_seconds":148749,"freshness":"FRESH","line1":"1 64268U 25120N   26263.37118765  .00011214  00000+0  34252-3 0  9990","line2":"2 64268  53.1600 286.6727 0001368  92.7513 267.3647 15.34400289 73793","mean_motion":15.34400289,"eccentricity":0.0001368,"inclination_deg":53.16,"raan_deg":286.6727,"arg_perigee_deg":92.7513,"mean_anomaly_deg":267.3647,"bstar":0.00034252,"rev_number":7379,"period_min":93.847740405372,"perigee_km":461.76655441098,"apogee_km":463.63820806569,"semimajor_km":6840.8393812383,"source":"CELESTRAK","updated_at":"2026-09-21T09:00:35.283920Z"}}